Flag for Germany Weather past 2 weeks in Schweinfurt, Bavaria, Germany

Now
47 °F

Clear.


Feels Like: 47 °F
Forecast: 49 / 75 °F
Wind: 2 mph from North

Location: Wuerzburg


UV Index: 3 (Moderate)

Visibility: 16 mi


Pressure: 30.11 "Hg

Humidity: 88%

Dew point: 44 °F

Location of SchweinfurtLocation

Historic Weather in Schweinfurt

°F

Schweinfurt temperature yesterday

Maximum temperature yesterday: 71 °F (at 5:00 PM)
Minimum temperature yesterday: 42 °F (at 6:00 AM)
Average temperature yesterday: 58 °F

Past Weeks' High & Low Weather Summary

 TemperatureHumidityPressure
High71 °F (Apr 23, 5:00 PM)100% (Apr 19, 6:00 AM)30.42 "Hg (Apr 19, 6:00 AM)
Low33 °F (Apr 17, 7:00 AM)28% (Apr 17, 5:00 PM)29.59 "Hg (Apr 21, 5:00 PM)
Average51 °F66%30.02 "Hg
* Reported Apr 9 5:00 AM — Apr 24 5:00 AM, Schweinfurt, Weather by CustomWeather, © 2014

Note: Actual official high and low records may vary slightly from our data, if they occured in-between our weather recording intervals... More about our weather records

Advertising

Historic Weather Conditions — Data for Previous 24 hours

 ConditionsComfort  
Time TempWeatherWind HumidityBarometerVisibility
5:00 AM
Apr 24
48 °FClear.2 mph86%30.11 "Hg19 mi
4:00 AM49 °FClear.2 mph83%30.11 "Hg22 mi
3:00 AM51 °FClear.2 mph79%30.10 "Hg25 mi
2:00 AM52 °FClear.3 mph75%30.10 "Hg28 mi
1:00 AM54 °FPassing clouds.3 mph70%30.10 "Hg28 mi
12:00 AM56 °FClear.1 mph65%30.09 "Hg34 mi
11:00 PM
Apr 23
58 °FPassing clouds.2 mph58%30.08 "Hg37 mi
10:00 PM60 °FPassing clouds.2 mph52%30.07 "Hg37 mi
9:00 PM64 °FPassing clouds.2 mph46%30.05 "Hg37 mi
8:00 PM67 °FScattered clouds.2 mph36%30.03 "Hg40 mi
7:00 PM69 °FPassing clouds.3 mph33%30.02 "Hg40 mi
6:00 PM71 °FScattered clouds.5 mph29%30.02 "Hg40 mi
5:00 PM71 °FScattered clouds.2 mph29%30.03 "Hg40 mi
4:00 PM71 °FScattered clouds.2 mph36%30.04 "Hg31 mi
3:00 PM69 °FScattered clouds.2 mph37%30.06 "Hg37 mi
2:00 PM69 °FScattered clouds.2 mph42%30.07 "Hg28 mi
1:00 PM67 °FScattered clouds.3 mph47%30.08 "Hg22 mi
12:00 PM65 °FScattered clouds.2 mph53%30.10 "Hg19 mi
11:00 AM61 °FScattered clouds.2 mph64%30.11 "Hg13 mi
10:00 AM56 °FPassing clouds.2 mph71%30.11 "Hg13 mi
9:00 AM50 °FPassing clouds.1 mph86%30.11 "Hg9 mi
8:00 AM47 °FPassing clouds.1 mph91%30.11 "Hg6 mi
7:00 AM44 °FPassing clouds.1 mph97%30.11 "Hg9 mi
6:00 AM42 °FPassing clouds.1 mph97%30.11 "Hg6 mi
Weather by CustomWeather, © 2014

See weather overview